Year,Month,Day,Hour,Minute,Value (Times are PST for temperature in C)
2019,04,08,00,00,4.60
2019,04,08,00,01,4.60
2019,04,08,00,02,4.70
2019,04,08,00,03,4.70
2019,04,08,00,04,4.80
2019,04,08,00,05,4.80
2019,04,08,00,06,4.90
2019,04,08,00,07,5.00
2019,04,08,00,08,5.00
2019,04,08,00,09,5.00
2019,04,08,00,10,5.10
2019,04,08,00,11,5.10
2019,04,08,00,12,5.20
2019,04,08,00,13,5.20
2019,04,08,00,14,5.30
2019,04,08,00,15,5.30
2019,04,08,00,16,5.30
2019,04,08,00,17,5.40
2019,04,08,00,18,5.50
2019,04,08,00,19,5.50
2019,04,08,00,20,5.60
2019,04,08,00,21,5.60
2019,04,08,00,22,5.70
2019,04,08,00,23,5.70
2019,04,08,00,24,5.70
2019,04,08,00,25,5.60
2019,04,08,00,26,5.60
2019,04,08,00,27,5.60
2019,04,08,00,28,5.50
2019,04,08,00,29,5.50
2019,04,08,00,30,5.40
2019,04,08,00,31,5.40
2019,04,08,00,32,5.30
2019,04,08,00,33,5.30
2019,04,08,00,34,5.30
2019,04,08,00,35,5.30
2019,04,08,00,36,5.30
2019,04,08,00,37,5.30
2019,04,08,00,38,5.30
2019,04,08,00,39,5.20
2019,04,08,00,40,5.20
2019,04,08,00,41,5.20
2019,04,08,00,42,5.20
2019,04,08,00,43,5.20
2019,04,08,00,44,5.10
2019,04,08,00,45,5.10
2019,04,08,00,46,5.10
2019,04,08,00,47,5.10
2019,04,08,00,48,5.10
2019,04,08,00,49,5.00
2019,04,08,00,50,5.00
2019,04,08,00,51,5.00
2019,04,08,00,52,5.00
2019,04,08,00,53,5.00
2019,04,08,00,54,4.90
2019,04,08,00,55,4.90
2019,04,08,00,56,4.90
2019,04,08,00,57,4.90
2019,04,08,00,58,4.90
2019,04,08,00,59,4.90
2019,04,08,01,00,4.80
2019,04,08,01,01,4.80
2019,04,08,01,02,4.80
2019,04,08,01,03,4.80
2019,04,08,01,04,4.80
2019,04,08,01,05,4.80
2019,04,08,01,06,4.80
2019,04,08,01,07,4.80
2019,04,08,01,08,4.80
2019,04,08,01,09,4.80
2019,04,08,01,10,4.80
2019,04,08,01,11,4.70
2019,04,08,01,12,4.70
2019,04,08,01,13,4.70
2019,04,08,01,14,4.70
2019,04,08,01,15,4.70
2019,04,08,01,16,4.70
2019,04,08,01,17,4.70
2019,04,08,01,18,4.70
2019,04,08,01,19,4.70
2019,04,08,01,20,4.70
2019,04,08,01,21,4.70
2019,04,08,01,22,4.70
2019,04,08,01,23,4.70
2019,04,08,01,24,4.70
2019,04,08,01,25,4.70
2019,04,08,01,26,4.70
2019,04,08,01,27,4.70
2019,04,08,01,28,4.70
2019,04,08,01,29,4.70
2019,04,08,01,30,4.70
2019,04,08,01,31,4.70
2019,04,08,01,32,4.70
2019,04,08,01,33,4.70
2019,04,08,01,34,4.70
2019,04,08,01,35,4.70
2019,04,08,01,36,4.70
2019,04,08,01,37,4.70
2019,04,08,01,38,4.70
2019,04,08,01,39,4.80
2019,04,08,01,40,4.70
2019,04,08,01,41,4.70
2019,04,08,01,42,4.70
2019,04,08,01,43,4.70
2019,04,08,01,44,4.70
2019,04,08,01,45,4.70
2019,04,08,01,46,4.70
2019,04,08,01,47,4.70
2019,04,08,01,48,4.70
2019,04,08,01,49,4.70
2019,04,08,01,50,4.70
2019,04,08,01,51,4.70
2019,04,08,01,52,4.70
2019,04,08,01,53,4.70
2019,04,08,01,54,4.70
2019,04,08,01,55,4.70
2019,04,08,01,56,4.70
2019,04,08,01,57,4.70
2019,04,08,01,58,4.70
2019,04,08,01,59,4.70
2019,04,08,02,00,4.70
2019,04,08,02,01,4.70
2019,04,08,02,02,4.70
2019,04,08,02,03,4.70
2019,04,08,02,04,4.70
2019,04,08,02,05,4.60
2019,04,08,02,06,4.60
2019,04,08,02,07,4.60
2019,04,08,02,08,4.60
2019,04,08,02,09,4.60
2019,04,08,02,10,4.60
2019,04,08,02,11,4.60
2019,04,08,02,12,4.60
2019,04,08,02,13,4.60
2019,04,08,02,14,4.60
2019,04,08,02,15,4.50
2019,04,08,02,16,4.50
2019,04,08,02,17,4.50
2019,04,08,02,18,4.50
2019,04,08,02,19,4.60
2019,04,08,02,20,4.60
2019,04,08,02,21,4.60
2019,04,08,02,22,4.60
2019,04,08,02,23,4.60
2019,04,08,02,24,4.60
2019,04,08,02,25,4.60
2019,04,08,02,26,4.60
2019,04,08,02,27,4.60
2019,04,08,02,28,4.60
2019,04,08,02,29,4.60
2019,04,08,02,30,4.60
2019,04,08,02,31,4.60
2019,04,08,02,32,4.60
2019,04,08,02,33,4.60
2019,04,08,02,34,4.60
2019,04,08,02,35,4.60
2019,04,08,02,36,4.70
2019,04,08,02,37,4.70
2019,04,08,02,38,4.70
2019,04,08,02,39,4.70
2019,04,08,02,40,4.70
2019,04,08,02,41,4.70
2019,04,08,02,42,4.70
2019,04,08,02,43,4.70
2019,04,08,02,44,4.70
2019,04,08,02,45,4.70
2019,04,08,02,46,4.70
2019,04,08,02,47,4.70
2019,04,08,02,48,4.70
2019,04,08,02,49,4.70
2019,04,08,02,50,4.60
2019,04,08,02,51,4.60
2019,04,08,02,52,4.60
2019,04,08,02,53,4.60
2019,04,08,02,54,4.60
2019,04,08,02,55,4.60
2019,04,08,02,56,4.60
2019,04,08,02,57,4.60
2019,04,08,02,58,4.60
2019,04,08,02,59,4.60
2019,04,08,03,00,4.60
2019,04,08,03,01,4.60
2019,04,08,03,02,4.60
2019,04,08,03,03,4.60
2019,04,08,03,04,4.60
2019,04,08,03,05,4.60
2019,04,08,03,06,4.60
2019,04,08,03,07,4.70
2019,04,08,03,08,4.70
2019,04,08,03,09,4.70
2019,04,08,03,10,4.70
2019,04,08,03,11,4.70
2019,04,08,03,12,4.70
2019,04,08,03,13,4.70
2019,04,08,03,14,4.70
2019,04,08,03,15,4.70
2019,04,08,03,16,4.70
2019,04,08,03,17,4.70
2019,04,08,03,18,4.70
2019,04,08,03,19,4.60
2019,04,08,03,20,4.60
2019,04,08,03,21,4.60
2019,04,08,03,22,4.60
2019,04,08,03,23,4.60
2019,04,08,03,24,4.60
2019,04,08,03,25,4.60
2019,04,08,03,26,4.60
2019,04,08,03,27,4.60
2019,04,08,03,28,4.60
2019,04,08,03,29,4.60
2019,04,08,03,30,4.60
2019,04,08,03,31,4.60
2019,04,08,03,32,4.60
2019,04,08,03,33,4.60
2019,04,08,03,34,4.60
2019,04,08,03,35,4.50
2019,04,08,03,36,4.50
2019,04,08,03,37,4.50
2019,04,08,03,38,4.50
2019,04,08,03,39,4.50
2019,04,08,03,40,4.50
2019,04,08,03,41,4.50
2019,04,08,03,42,4.50
2019,04,08,03,43,4.60
2019,04,08,03,44,4.60
2019,04,08,03,45,4.60
2019,04,08,03,46,4.60
2019,04,08,03,47,4.60
2019,04,08,03,48,4.50
2019,04,08,03,49,4.50
2019,04,08,03,50,4.50
2019,04,08,03,51,4.50
2019,04,08,03,52,4.50
2019,04,08,03,53,4.50
2019,04,08,03,54,4.50
2019,04,08,03,55,4.40
2019,04,08,03,56,4.40
2019,04,08,03,57,4.40
2019,04,08,03,58,4.40
2019,04,08,03,59,4.40
2019,04,08,04,00,4.40
2019,04,08,04,01,4.40
2019,04,08,04,02,4.40
2019,04,08,04,03,4.40
2019,04,08,04,04,4.40
2019,04,08,04,05,4.40
2019,04,08,04,06,4.40
2019,04,08,04,07,4.40
2019,04,08,04,08,4.40
2019,04,08,04,09,4.40
2019,04,08,04,10,4.40
2019,04,08,04,11,4.40
2019,04,08,04,12,4.40
2019,04,08,04,13,4.40
2019,04,08,04,14,4.40
2019,04,08,04,15,4.40
2019,04,08,04,16,4.40
2019,04,08,04,17,4.40
2019,04,08,04,18,4.40
2019,04,08,04,19,4.40
2019,04,08,04,20,4.40
2019,04,08,04,21,4.30
2019,04,08,04,22,4.30
2019,04,08,04,23,4.30
2019,04,08,04,24,4.40
2019,04,08,04,25,4.40
2019,04,08,04,26,4.30
2019,04,08,04,27,4.30
2019,04,08,04,28,4.30
2019,04,08,04,29,4.30
2019,04,08,04,30,4.30
2019,04,08,04,31,4.30
2019,04,08,04,32,4.30
2019,04,08,04,33,4.30
2019,04,08,04,34,4.30
2019,04,08,04,35,4.30
2019,04,08,04,36,4.20
2019,04,08,04,37,4.20
2019,04,08,04,38,4.20
2019,04,08,04,39,4.20
2019,04,08,04,40,4.20
2019,04,08,04,41,4.20
2019,04,08,04,42,4.20
2019,04,08,04,43,4.20
2019,04,08,04,44,4.20
2019,04,08,04,45,4.20
2019,04,08,04,46,4.20
2019,04,08,04,47,4.20
2019,04,08,04,48,4.20
2019,04,08,04,49,4.20
2019,04,08,04,50,4.20
2019,04,08,04,51,4.20
2019,04,08,04,52,4.20
2019,04,08,04,53,4.20
2019,04,08,04,54,4.20
2019,04,08,04,55,4.20
2019,04,08,04,56,4.20
2019,04,08,04,57,4.10
2019,04,08,04,58,4.10
2019,04,08,04,59,4.10
2019,04,08,05,00,4.10
2019,04,08,05,01,4.10
2019,04,08,05,02,4.10
2019,04,08,05,03,4.10
2019,04,08,05,04,4.10
2019,04,08,05,05,4.10
2019,04,08,05,06,4.10
2019,04,08,05,07,4.10
2019,04,08,05,08,4.10
2019,04,08,05,09,4.10
2019,04,08,05,10,4.00
2019,04,08,05,11,4.00
2019,04,08,05,12,4.00
2019,04,08,05,13,4.00
2019,04,08,05,14,4.00
2019,04,08,05,15,4.00
2019,04,08,05,16,4.00
2019,04,08,05,17,4.00
2019,04,08,05,18,3.90
2019,04,08,05,19,3.90
2019,04,08,05,20,3.90
2019,04,08,05,21,3.90
2019,04,08,05,22,3.90
2019,04,08,05,23,3.90
2019,04,08,05,24,3.90
2019,04,08,05,25,3.90
2019,04,08,05,26,3.80
2019,04,08,05,27,3.80
2019,04,08,05,28,3.80
2019,04,08,05,29,3.80
2019,04,08,05,30,3.80
2019,04,08,05,31,3.80
2019,04,08,05,32,3.80
2019,04,08,05,33,3.80
2019,04,08,05,34,3.80
2019,04,08,05,35,3.80
2019,04,08,05,36,3.80
2019,04,08,05,37,3.80
2019,04,08,05,38,3.80
2019,04,08,05,39,3.80
2019,04,08,05,40,3.80
2019,04,08,05,41,3.80
2019,04,08,05,42,3.80
2019,04,08,05,43,3.80
2019,04,08,05,44,3.80
2019,04,08,05,45,3.80
2019,04,08,05,46,3.80
2019,04,08,05,47,3.80
2019,04,08,05,48,3.80
2019,04,08,05,49,3.80
2019,04,08,05,50,3.90
2019,04,08,05,51,3.90
2019,04,08,05,52,3.90
2019,04,08,05,53,3.80
2019,04,08,05,54,3.80
2019,04,08,05,55,3.80
2019,04,08,05,56,3.80
2019,04,08,05,57,3.80
2019,04,08,05,58,3.80
2019,04,08,05,59,3.80
2019,04,08,06,00,3.80
2019,04,08,06,01,3.80
2019,04,08,06,02,3.80
2019,04,08,06,03,3.80
2019,04,08,06,04,3.70
2019,04,08,06,05,3.70
2019,04,08,06,06,3.70
2019,04,08,06,07,3.70
2019,04,08,06,08,3.70
2019,04,08,06,09,3.70
2019,04,08,06,10,3.70
2019,04,08,06,11,3.70
2019,04,08,06,12,3.70
2019,04,08,06,13,3.70
2019,04,08,06,14,3.70
2019,04,08,06,15,3.70
2019,04,08,06,16,3.70
2019,04,08,06,17,3.70
2019,04,08,06,18,3.70
2019,04,08,06,19,3.70
2019,04,08,06,20,3.80
2019,04,08,06,21,3.80
2019,04,08,06,22,3.80
2019,04,08,06,23,3.80
2019,04,08,06,24,3.80
2019,04,08,06,25,3.80
2019,04,08,06,26,3.90
2019,04,08,06,27,3.90
2019,04,08,06,28,3.90
2019,04,08,06,29,4.00
2019,04,08,06,30,4.00
2019,04,08,06,31,4.10
2019,04,08,06,32,4.10
2019,04,08,06,33,4.20
2019,04,08,06,34,4.30
2019,04,08,06,35,4.30
2019,04,08,06,36,4.30
2019,04,08,06,37,4.40
2019,04,08,06,38,4.40
2019,04,08,06,39,4.40
2019,04,08,06,40,4.50
2019,04,08,06,41,4.50
2019,04,08,06,42,4.50
2019,04,08,06,43,4.50
2019,04,08,06,44,4.50
2019,04,08,06,45,4.50
2019,04,08,06,46,4.50
2019,04,08,06,47,4.50
2019,04,08,06,48,4.50
2019,04,08,06,49,4.60
2019,04,08,06,50,4.60
2019,04,08,06,51,4.60
2019,04,08,06,52,4.60
2019,04,08,06,53,4.60
2019,04,08,06,54,4.60
2019,04,08,06,55,4.60
2019,04,08,06,56,4.60
2019,04,08,06,57,4.60
2019,04,08,06,58,4.60
2019,04,08,06,59,4.60
2019,04,08,07,00,4.60
2019,04,08,07,01,4.60
2019,04,08,07,02,4.60
2019,04,08,07,03,4.60
2019,04,08,07,04,4.60
2019,04,08,07,05,4.60
2019,04,08,07,06,4.60
2019,04,08,07,07,4.60
2019,04,08,07,08,4.60
2019,04,08,07,09,4.60
2019,04,08,07,10,4.60
2019,04,08,07,11,4.60
2019,04,08,07,12,4.60
2019,04,08,07,13,4.60
2019,04,08,07,14,4.60
2019,04,08,07,15,4.60
2019,04,08,07,16,4.60
2019,04,08,07,17,4.70
2019,04,08,07,18,4.70
2019,04,08,07,19,4.70
2019,04,08,07,20,4.70
2019,04,08,07,21,4.70
2019,04,08,07,22,4.70
2019,04,08,07,23,4.70
2019,04,08,07,24,4.80
2019,04,08,07,25,4.80
2019,04,08,07,26,4.80
2019,04,08,07,27,4.90
2019,04,08,07,28,4.90
2019,04,08,07,29,4.90
2019,04,08,07,30,5.00
2019,04,08,07,31,5.00
2019,04,08,07,32,5.10
2019,04,08,07,33,5.10
2019,04,08,07,34,5.20
2019,04,08,07,35,5.30
2019,04,08,07,36,5.40
2019,04,08,07,37,5.50
2019,04,08,07,38,5.60
2019,04,08,07,39,5.70
2019,04,08,07,40,5.80
2019,04,08,07,41,5.90
2019,04,08,07,42,6.00
2019,04,08,07,43,6.10
2019,04,08,07,44,6.20
2019,04,08,07,45,6.30
2019,04,08,07,46,6.30
2019,04,08,07,47,6.40
2019,04,08,07,48,6.50
2019,04,08,07,49,6.50
2019,04,08,07,50,6.60
2019,04,08,07,51,6.70
2019,04,08,07,52,6.70
2019,04,08,07,53,6.70
2019,04,08,07,54,6.80
2019,04,08,07,55,6.80
2019,04,08,07,56,6.90
2019,04,08,07,57,7.00
2019,04,08,07,58,7.10
2019,04,08,07,59,7.20
2019,04,08,08,00,7.20
2019,04,08,08,01,7.30
2019,04,08,08,02,7.40
2019,04,08,08,03,7.40
2019,04,08,08,04,7.50
2019,04,08,08,05,7.60
2019,04,08,08,06,7.60
2019,04,08,08,07,7.70
2019,04,08,08,08,7.80
2019,04,08,08,09,7.80
2019,04,08,08,10,7.90
2019,04,08,08,11,8.00
2019,04,08,08,12,8.00
2019,04,08,08,13,8.10
2019,04,08,08,14,8.10
2019,04,08,08,15,8.20
2019,04,08,08,16,8.30
2019,04,08,08,17,8.30
2019,04,08,08,18,8.40
2019,04,08,08,19,8.40
2019,04,08,08,20,8.50
2019,04,08,08,21,8.50
2019,04,08,08,22,8.60
2019,04,08,08,23,8.60
2019,04,08,08,24,8.70
2019,04,08,08,25,8.70
2019,04,08,08,26,8.80
2019,04,08,08,27,8.80
2019,04,08,08,28,8.90
2019,04,08,08,29,9.00
2019,04,08,08,30,9.00
2019,04,08,08,31,9.10
2019,04,08,08,32,9.10
2019,04,08,08,33,9.20
2019,04,08,08,34,9.20
2019,04,08,08,35,9.20
2019,04,08,08,36,9.30
2019,04,08,08,37,9.30
2019,04,08,08,38,9.40
2019,04,08,08,39,9.40
2019,04,08,08,40,9.40
2019,04,08,08,41,9.50
2019,04,08,08,42,9.60
2019,04,08,08,43,9.60
2019,04,08,08,44,9.60
2019,04,08,08,45,9.60
2019,04,08,08,46,9.60
2019,04,08,08,47,9.60
2019,04,08,08,48,9.60
2019,04,08,08,49,9.50
2019,04,08,08,50,9.50
2019,04,08,08,51,9.50
2019,04,08,08,52,9.50
2019,04,08,08,53,9.40
2019,04,08,08,54,9.40
2019,04,08,08,55,9.40
2019,04,08,08,56,9.40
2019,04,08,08,57,9.40
2019,04,08,08,58,9.40
2019,04,08,08,59,9.30
2019,04,08,09,00,9.40
2019,04,08,09,01,9.30
2019,04,08,09,02,9.40
2019,04,08,09,03,9.40
2019,04,08,09,04,9.40
2019,04,08,09,05,9.40
2019,04,08,09,06,9.40
2019,04,08,09,07,9.40
2019,04,08,09,08,9.40
2019,04,08,09,09,9.40
2019,04,08,09,10,9.40
2019,04,08,09,11,9.40
2019,04,08,09,12,9.40
2019,04,08,09,13,9.50
2019,04,08,09,14,9.50
2019,04,08,09,15,9.60
2019,04,08,09,16,9.60
2019,04,08,09,17,9.70
2019,04,08,09,18,9.70
2019,04,08,09,19,9.70
2019,04,08,09,20,9.80
2019,04,08,09,21,9.80
2019,04,08,09,22,9.70
2019,04,08,09,23,9.70
2019,04,08,09,24,9.70
2019,04,08,09,25,9.70
2019,04,08,09,26,9.70
2019,04,08,09,27,9.70
2019,04,08,09,28,9.70
2019,04,08,09,29,9.70
2019,04,08,09,30,9.70
2019,04,08,09,31,9.70
2019,04,08,09,32,9.70
2019,04,08,09,33,9.60
2019,04,08,09,34,9.60
2019,04,08,09,35,9.70
2019,04,08,09,36,9.70
2019,04,08,09,37,9.70
2019,04,08,09,38,9.70
2019,04,08,09,39,9.70
2019,04,08,09,40,9.70
2019,04,08,09,41,9.70
2019,04,08,09,42,9.70
2019,04,08,09,43,9.70
2019,04,08,09,44,9.70
2019,04,08,09,45,9.70
2019,04,08,09,46,9.60
2019,04,08,09,47,9.60
2019,04,08,09,48,9.60
2019,04,08,09,49,9.50
2019,04,08,09,50,9.50
2019,04,08,09,51,9.50
2019,04,08,09,52,9.40
2019,04,08,09,53,9.40
2019,04,08,09,54,9.40
2019,04,08,09,55,9.40
2019,04,08,09,56,9.30
2019,04,08,09,57,9.30
2019,04,08,09,58,9.30
2019,04,08,09,59,9.20
2019,04,08,10,00,9.20
2019,04,08,10,01,9.20
2019,04,08,10,02,9.10
2019,04,08,10,03,9.10
2019,04,08,10,04,9.00
2019,04,08,10,05,9.00
2019,04,08,10,06,8.90
2019,04,08,10,07,8.90
2019,04,08,10,08,8.80
2019,04,08,10,09,8.80
2019,04,08,10,10,8.80
2019,04,08,10,11,8.80
2019,04,08,10,12,8.70
2019,04,08,10,13,8.70
2019,04,08,10,14,8.70
2019,04,08,10,15,8.60
2019,04,08,10,16,8.60
2019,04,08,10,17,8.60
2019,04,08,10,18,8.60
2019,04,08,10,19,8.60
2019,04,08,10,20,8.60
2019,04,08,10,21,8.60
2019,04,08,10,22,8.60
2019,04,08,10,23,8.60
2019,04,08,10,24,8.60
2019,04,08,10,25,8.60
2019,04,08,10,26,8.70
2019,04,08,10,27,8.70
2019,04,08,10,28,8.70
2019,04,08,10,29,8.80
2019,04,08,10,30,8.90
2019,04,08,10,31,9.00
2019,04,08,10,32,9.00
2019,04,08,10,33,9.10
2019,04,08,10,34,9.20
2019,04,08,10,35,9.30
2019,04,08,10,36,9.30
2019,04,08,10,37,9.30
2019,04,08,10,38,9.40
2019,04,08,10,39,9.40
2019,04,08,10,40,9.30
2019,04,08,10,41,9.40
2019,04,08,10,42,9.40
2019,04,08,10,43,9.50
2019,04,08,10,44,9.60
2019,04,08,10,45,9.60
2019,04,08,10,46,9.70
2019,04,08,10,47,9.70
2019,04,08,10,48,9.80
2019,04,08,10,49,9.80
2019,04,08,10,50,9.80
2019,04,08,10,51,9.80
2019,04,08,10,52,9.80
2019,04,08,10,53,9.80
2019,04,08,10,54,9.70
2019,04,08,10,55,9.70
2019,04,08,10,56,9.60
2019,04,08,10,57,9.60
2019,04,08,10,58,9.60
2019,04,08,10,59,9.60
2019,04,08,11,00,9.60
2019,04,08,11,01,9.60
2019,04,08,11,02,9.60
2019,04,08,11,03,9.60
2019,04,08,11,04,9.70
2019,04,08,11,05,9.70
2019,04,08,11,06,9.70
2019,04,08,11,07,9.70
2019,04,08,11,08,9.70
2019,04,08,11,09,9.80
2019,04,08,11,10,9.80
2019,04,08,11,11,9.80
2019,04,08,11,12,9.80
2019,04,08,11,13,9.80
2019,04,08,11,14,9.80
2019,04,08,11,15,9.80
2019,04,08,11,16,9.80
2019,04,08,11,17,9.80
2019,04,08,11,18,9.80
2019,04,08,11,19,9.80
2019,04,08,11,20,9.70
2019,04,08,11,21,9.70
2019,04,08,11,22,9.70
2019,04,08,11,23,9.70
2019,04,08,11,24,9.80
2019,04,08,11,25,9.80
2019,04,08,11,26,9.80
2019,04,08,11,27,9.80
2019,04,08,11,28,9.80
2019,04,08,11,29,9.80
2019,04,08,11,30,9.80
2019,04,08,11,31,9.80
2019,04,08,11,32,9.80
2019,04,08,11,33,9.80
2019,04,08,11,34,9.80
2019,04,08,11,35,9.80
2019,04,08,11,36,9.70
2019,04,08,11,37,9.70
2019,04,08,11,38,9.70
2019,04,08,11,39,9.70
2019,04,08,11,40,9.70
2019,04,08,11,41,9.70
2019,04,08,11,42,9.70
2019,04,08,11,43,9.70
2019,04,08,11,44,9.60
2019,04,08,11,45,9.60
2019,04,08,11,46,9.60
2019,04,08,11,47,9.60
2019,04,08,11,48,9.60
2019,04,08,11,49,9.50
2019,04,08,11,50,9.50
2019,04,08,11,51,9.50
2019,04,08,11,52,9.50
2019,04,08,11,53,9.50
2019,04,08,11,54,9.40
2019,04,08,11,55,9.40
2019,04,08,11,56,9.40
2019,04,08,11,57,9.40
2019,04,08,11,58,9.40
2019,04,08,11,59,9.40
2019,04,08,12,00,9.40
2019,04,08,12,01,9.40
2019,04,08,12,02,9.40
2019,04,08,12,03,9.40
2019,04,08,12,04,9.40
2019,04,08,12,05,9.40
2019,04,08,12,06,9.40
2019,04,08,12,07,9.40
2019,04,08,12,08,9.50
2019,04,08,12,09,9.50
2019,04,08,12,10,9.50
2019,04,08,12,11,9.60
2019,04,08,12,12,9.60
2019,04,08,12,13,9.70
2019,04,08,12,14,9.70
2019,04,08,12,15,9.70
2019,04,08,12,16,9.70
2019,04,08,12,17,9.70
2019,04,08,12,18,9.70
2019,04,08,12,19,9.70
2019,04,08,12,20,9.70
2019,04,08,12,21,9.70
2019,04,08,12,22,9.70
2019,04,08,12,23,9.60
2019,04,08,12,24,9.60
2019,04,08,12,25,9.60
2019,04,08,12,26,9.60
2019,04,08,12,27,9.60
2019,04,08,12,28,9.60
2019,04,08,12,29,9.60
2019,04,08,12,30,9.60
2019,04,08,12,31,9.60
2019,04,08,12,32,9.60
2019,04,08,12,33,9.60
2019,04,08,12,34,9.60
2019,04,08,12,35,9.60
2019,04,08,12,36,9.60
2019,04,08,12,37,9.60
2019,04,08,12,38,9.60
2019,04,08,12,39,9.60
2019,04,08,12,40,9.50
2019,04,08,12,41,9.50
2019,04,08,12,42,9.50
2019,04,08,12,43,9.50
2019,04,08,12,44,9.50
2019,04,08,12,45,9.50
2019,04,08,12,46,9.50
2019,04,08,12,47,9.60
2019,04,08,12,48,9.60
2019,04,08,12,49,9.60
2019,04,08,12,50,9.60
2019,04,08,12,51,9.60
2019,04,08,12,52,9.60
2019,04,08,12,53,9.60
2019,04,08,12,54,9.60
2019,04,08,12,55,9.60
2019,04,08,12,56,9.50
2019,04,08,12,57,9.50
2019,04,08,12,58,9.60
2019,04,08,12,59,9.50
2019,04,08,13,00,9.50
2019,04,08,13,01,9.50
2019,04,08,13,02,9.50
2019,04,08,13,03,9.50
2019,04,08,13,04,9.50
2019,04,08,13,05,9.50
2019,04,08,13,06,9.50
2019,04,08,13,07,9.60
2019,04,08,13,08,9.60
2019,04,08,13,09,9.60
2019,04,08,13,10,9.60
2019,04,08,13,11,9.60
2019,04,08,13,12,9.60
2019,04,08,13,13,9.60
2019,04,08,13,14,9.60
2019,04,08,13,15,9.50
2019,04,08,13,16,9.50
2019,04,08,13,17,9.50
2019,04,08,13,18,9.40
2019,04,08,13,19,9.40
2019,04,08,13,20,9.40
2019,04,08,13,21,9.40
2019,04,08,13,22,9.40
2019,04,08,13,23,9.40
2019,04,08,13,24,9.50
2019,04,08,13,25,9.50
2019,04,08,13,26,9.50
2019,04,08,13,27,9.50
2019,04,08,13,28,9.50
2019,04,08,13,29,9.50
2019,04,08,13,30,9.50
2019,04,08,13,31,9.40
2019,04,08,13,32,9.40
2019,04,08,13,33,9.40
2019,04,08,13,34,9.30
2019,04,08,13,35,9.30
2019,04,08,13,36,9.20
2019,04,08,13,37,9.10
2019,04,08,13,38,9.10
2019,04,08,13,39,9.00
2019,04,08,13,40,8.90
2019,04,08,13,41,8.90
2019,04,08,13,42,8.90
2019,04,08,13,43,8.90
2019,04,08,13,44,8.90
2019,04,08,13,45,8.90
2019,04,08,13,46,8.80
2019,04,08,13,47,8.80
2019,04,08,13,48,8.80
2019,04,08,13,49,8.80
2019,04,08,13,50,8.90
2019,04,08,13,51,8.90
2019,04,08,13,52,8.90
2019,04,08,13,53,8.80
2019,04,08,13,54,8.80
2019,04,08,13,55,8.80
2019,04,08,13,56,8.80
2019,04,08,13,57,8.80
2019,04,08,13,58,8.80
2019,04,08,13,59,8.80
2019,04,08,14,00,8.80
2019,04,08,14,01,8.70
2019,04,08,14,02,8.70
2019,04,08,14,03,8.70
2019,04,08,14,04,8.60
2019,04,08,14,05,8.60
2019,04,08,14,06,8.60
2019,04,08,14,07,8.50
2019,04,08,14,08,8.50
2019,04,08,14,09,8.50
2019,04,08,14,10,8.50
2019,04,08,14,11,8.50
2019,04,08,14,12,8.50
2019,04,08,14,13,8.60
2019,04,08,14,14,8.60
2019,04,08,14,15,8.60
2019,04,08,14,16,8.60
2019,04,08,14,17,8.70
2019,04,08,14,18,8.70
2019,04,08,14,19,8.70
2019,04,08,14,20,8.70
2019,04,08,14,21,8.70
2019,04,08,14,22,8.80
2019,04,08,14,23,8.80
2019,04,08,14,24,8.80
2019,04,08,14,25,8.80
2019,04,08,14,26,8.80
2019,04,08,14,27,8.80
2019,04,08,14,28,8.80
2019,04,08,14,29,8.80
2019,04,08,14,30,8.80
2019,04,08,14,31,8.90
2019,04,08,14,32,8.90
2019,04,08,14,33,8.90
2019,04,08,14,34,8.90
2019,04,08,14,35,8.90
2019,04,08,14,36,9.00
2019,04,08,14,37,9.00
2019,04,08,14,38,9.00
2019,04,08,14,39,9.00
2019,04,08,14,40,9.00
2019,04,08,14,41,9.00
2019,04,08,14,42,9.10
2019,04,08,14,43,9.10
2019,04,08,14,44,9.10
2019,04,08,14,45,9.10
2019,04,08,14,46,9.20
2019,04,08,14,47,9.20
2019,04,08,14,48,9.20
2019,04,08,14,49,9.20
2019,04,08,14,50,9.20
2019,04,08,14,51,9.20
2019,04,08,14,52,9.20
2019,04,08,14,53,9.30
2019,04,08,14,54,9.30
2019,04,08,14,55,9.30
2019,04,08,14,56,9.30
2019,04,08,14,57,9.30
2019,04,08,14,58,9.30
2019,04,08,14,59,9.30
2019,04,08,15,00,9.30
2019,04,08,15,01,9.30
2019,04,08,15,02,9.30
2019,04,08,15,03,9.30
2019,04,08,15,04,9.30
2019,04,08,15,05,9.30
2019,04,08,15,06,9.30
2019,04,08,15,07,9.30
2019,04,08,15,08,9.30
2019,04,08,15,09,9.30
2019,04,08,15,10,9.30
2019,04,08,15,11,9.30
2019,04,08,15,12,9.30
2019,04,08,15,13,9.30
2019,04,08,15,14,9.30
2019,04,08,15,15,9.30
2019,04,08,15,16,9.30
2019,04,08,15,17,9.40
2019,04,08,15,18,9.40
2019,04,08,15,19,9.40
2019,04,08,15,20,9.40
2019,04,08,15,21,9.40
2019,04,08,15,22,9.40
2019,04,08,15,23,9.40
2019,04,08,15,24,9.40
2019,04,08,15,25,9.40
2019,04,08,15,26,9.40
2019,04,08,15,27,9.40
2019,04,08,15,28,9.40
2019,04,08,15,29,9.40
2019,04,08,15,30,9.40
2019,04,08,15,31,9.40
2019,04,08,15,32,9.40
2019,04,08,15,33,9.40
2019,04,08,15,34,9.40
2019,04,08,15,35,9.40
2019,04,08,15,36,9.40
2019,04,08,15,37,9.40
2019,04,08,15,38,9.40
2019,04,08,15,39,9.30
2019,04,08,15,40,9.30
2019,04,08,15,41,9.30
2019,04,08,15,42,9.30
2019,04,08,15,43,9.30
2019,04,08,15,44,9.30
2019,04,08,15,45,9.30
2019,04,08,15,46,9.30
2019,04,08,15,47,9.30
2019,04,08,15,48,9.30
2019,04,08,15,49,9.20
2019,04,08,15,50,9.20
2019,04,08,15,51,9.20
2019,04,08,15,52,9.20
2019,04,08,15,53,9.20
2019,04,08,15,54,9.20
2019,04,08,15,55,9.20
2019,04,08,15,56,9.20
2019,04,08,15,57,9.20
2019,04,08,15,58,9.20
2019,04,08,15,59,9.20
2019,04,08,16,00,9.20
2019,04,08,16,01,9.10
2019,04,08,16,02,9.10
2019,04,08,16,03,9.10
2019,04,08,16,04,9.10
2019,04,08,16,05,9.10
2019,04,08,16,06,9.00
2019,04,08,16,07,9.00
2019,04,08,16,08,9.00
2019,04,08,16,09,8.90
2019,04,08,16,10,8.90
2019,04,08,16,11,8.80
2019,04,08,16,12,8.80
2019,04,08,16,13,8.80
2019,04,08,16,14,8.70
2019,04,08,16,15,8.70
2019,04,08,16,16,8.70
2019,04,08,16,17,8.60
2019,04,08,16,18,8.60
2019,04,08,16,19,8.60
2019,04,08,16,20,8.60
2019,04,08,16,21,8.60
2019,04,08,16,22,8.60
2019,04,08,16,23,8.50
2019,04,08,16,24,8.50
2019,04,08,16,25,8.50
2019,04,08,16,26,8.40
2019,04,08,16,27,8.40
2019,04,08,16,28,8.40
2019,04,08,16,29,8.40
2019,04,08,16,30,8.40
2019,04,08,16,31,8.40
2019,04,08,16,32,8.40
2019,04,08,16,33,8.40
2019,04,08,16,34,8.30
2019,04,08,16,35,8.30
2019,04,08,16,36,8.30
2019,04,08,16,37,8.30
2019,04,08,16,38,8.30
2019,04,08,16,39,8.30
2019,04,08,16,40,8.30
2019,04,08,16,41,8.30
2019,04,08,16,42,8.30
2019,04,08,16,43,8.30
2019,04,08,16,44,8.30
2019,04,08,16,45,8.20
2019,04,08,16,46,8.20
2019,04,08,16,47,8.20
2019,04,08,16,48,8.20
2019,04,08,16,49,8.20
2019,04,08,16,50,8.20
2019,04,08,16,51,8.20
2019,04,08,16,52,8.20
2019,04,08,16,53,8.20
2019,04,08,16,54,8.20
2019,04,08,16,55,8.20
2019,04,08,16,56,8.20
2019,04,08,16,57,8.20
2019,04,08,16,58,8.20
2019,04,08,16,59,8.10
2019,04,08,17,00,8.10
2019,04,08,17,01,8.10
2019,04,08,17,02,8.10
2019,04,08,17,03,8.10
2019,04,08,17,04,8.10
2019,04,08,17,05,8.10
2019,04,08,17,06,8.10
2019,04,08,17,07,8.10
2019,04,08,17,08,8.10
2019,04,08,17,09,8.10
2019,04,08,17,10,8.10
2019,04,08,17,11,8.10
2019,04,08,17,12,8.10
2019,04,08,17,13,8.10
2019,04,08,17,14,8.10
2019,04,08,17,15,8.10
2019,04,08,17,16,8.10
2019,04,08,17,17,8.10
2019,04,08,17,18,8.10
2019,04,08,17,19,8.10
2019,04,08,17,20,8.10
2019,04,08,17,21,8.10
2019,04,08,17,22,8.10
2019,04,08,17,23,8.10
2019,04,08,17,24,8.10
2019,04,08,17,25,8.10
2019,04,08,17,26,8.10
2019,04,08,17,27,8.00
2019,04,08,17,28,8.00
2019,04,08,17,29,8.00
2019,04,08,17,30,8.00
2019,04,08,17,31,8.00
2019,04,08,17,32,8.00
2019,04,08,17,33,8.00
2019,04,08,17,34,8.00
2019,04,08,17,35,8.00
2019,04,08,17,36,8.00
2019,04,08,17,37,8.00
2019,04,08,17,38,8.00
2019,04,08,17,39,8.00
2019,04,08,17,40,8.00
2019,04,08,17,41,8.00
2019,04,08,17,42,8.00
2019,04,08,17,43,8.00
2019,04,08,17,44,8.00
2019,04,08,17,45,8.00
2019,04,08,17,46,8.00
2019,04,08,17,47,8.00
2019,04,08,17,48,8.00
2019,04,08,17,49,8.00
2019,04,08,17,50,8.00
2019,04,08,17,51,8.00
2019,04,08,17,52,8.00
2019,04,08,17,53,8.00
2019,04,08,17,54,8.10
2019,04,08,17,55,8.10
2019,04,08,17,56,8.10
2019,04,08,17,57,8.10
2019,04,08,17,58,8.10
2019,04,08,17,59,8.10
2019,04,08,18,00,8.10
2019,04,08,18,01,8.10
2019,04,08,18,02,8.10
2019,04,08,18,03,8.10
2019,04,08,18,04,8.10
2019,04,08,18,05,8.10
2019,04,08,18,06,8.10